Location: Lake Arresoe
(56.0000°N, 12.5000°E)
Time: 08:00:37
(UTC+01:00)

FENGYUN 1C DEB - Visible Passes

Search period start: 29 January 2022 00:00
Search period end: 08 February 2022 00:00
Orbit: 674 x 854 km, 98.9° (Epoch: 28 January)

Date Brightness Start Highest point End Pass type
(mag) Time Alt. Az. Time Alt. Az. Time Alt. Az.
29 Jan ? 05:01:12 10° ESE 05:05:14 31° ENE 05:09:24 10° N visible
29 Jan ? 06:39:30 10° S 06:44:00 51° WSW 06:48:39 10° NNW visible
29 Jan ? 18:45:39 25° ESE 18:45:39 25° ESE 18:48:51 10° SSE visible
29 Jan ? 20:25:49 34° SW 20:25:49 34° SW 20:28:49 10° SW visible
30 Jan ? 04:25:24 10° E 04:28:35 19° NE 04:31:51 10° N visible
30 Jan ? 06:02:15 10° SSE 06:06:52 83° ENE 06:11:41 10° NNW visible
30 Jan ? 18:07:47 15° E 18:07:47 15° E 18:09:57 10° ESE visible
30 Jan ? 19:47:57 51° S 19:47:57 51° S 19:51:56 10° SSW visible
30 Jan ? 21:28:06 16° W 21:28:06 16° W 21:29:26 10° WSW visible
31 Jan ? 03:50:29 10° ENE 03:52:07 12° NE 03:53:46 10° NNE visible
31 Jan ? 05:25:32 10° SE 05:29:56 44° ENE 05:34:30 10° N visible
31 Jan ? 07:04:50 10° SSW 07:09:02 33° W 07:13:23 10° NNW visible
31 Jan ? 19:10:01 40° ESE 19:10:01 40° ESE 19:14:29 10° S visible
31 Jan ? 20:50:10 32° WSW 20:50:10 32° WSW 20:53:24 10° SW visible
01 Feb ? 04:49:20 10° ESE 04:53:11 26° NE 04:57:08 10° N visible
01 Feb ? 06:27:09 10° S 06:31:46 65° WSW 06:36:34 10° NNW visible
01 Feb ? 18:32:02 23° E 18:32:06 23° E 18:36:18 10° SE visible
01 Feb ? 20:12:11 66° SW 20:12:11 66° SW 20:16:51 10° SSW visible
01 Feb ? 21:52:19 14° W 21:52:19 14° W 21:53:26 10° W visible
02 Feb ? 04:13:45 10° E 04:16:36 16° NE 04:19:30 10° N visible
02 Feb ? 05:50:05 10° SSE 05:54:42 67° ENE 05:59:32 10° NNW visible
02 Feb ? 17:53:56 12° ENE 17:54:34 13° E 17:56:49 10° ESE visible
02 Feb ? 19:34:04 60° E 19:34:28 62° ESE 19:39:47 10° S visible
02 Feb ? 21:14:13 29° W 21:14:13 29° W 21:17:46 10° WSW visible
03 Feb ? 03:39:41 10° NE 03:40:11 10° NE 03:40:41 10° NNE visible
03 Feb ? 05:13:33 10° SE 05:17:49 37° ENE 05:22:18 10° N visible
03 Feb ? 06:52:20 10° S 06:56:45 42° W 07:01:23 10° NNW visible
03 Feb ? 18:55:48 29° ENE 18:57:14 34° E 19:02:07 10° SSE visible
03 Feb ? 20:35:54 51° NW 20:36:22 52° WNW 20:41:34 10° SW visible
03 Feb ? 22:16:01 13° WNW 22:16:01 13° WNW 22:17:07 10° WNW visible
04 Feb ? 04:37:32 10° ESE 04:41:09 22° NE 04:44:52 10° N visible
04 Feb ? 06:14:52 10° SSE 06:19:33 81° WSW 06:24:28 10° NNW visible
04 Feb ? 18:17:00 13° NE 18:19:50 19° E 18:23:38 10° SE visible
04 Feb ? 19:54:12 10° NNE 19:59:25 89° ESE 20:04:50 10° SSW visible
04 Feb ? 21:33:50 10° N 21:37:48 23° NW 21:41:55 10° WSW visible
05 Feb ? 04:02:12 10° ENE 04:04:37 14° NE 04:07:06 10° NNE visible
05 Feb ? 05:37:59 10° SE 05:42:34 54° ENE 05:47:21 10° N visible
05 Feb ? 17:41:41 10° ENE 17:42:12 10° E 17:42:43 10° E visible
05 Feb ? 19:17:12 10° NNE 19:22:18 50° E 19:27:34 10° S visible
05 Feb ? 20:56:23 10° N 21:01:08 37° WNW 21:06:02 10° SW visible
05 Feb ? 22:37:25 10° NNW 22:38:49 11° NW 22:40:14 10° NW visible
06 Feb ? 05:01:37 10° ESE 05:05:45 31° ENE 05:10:04 10° N visible
06 Feb ? 06:39:54 10° S 06:44:29 53° WSW 06:49:20 10° NNW visible
06 Feb ? 18:40:28 10° NE 18:45:01 28° E 18:49:40 10° SSE visible
06 Feb ? 20:19:07 10° NNE 20:24:17 64° WNW 20:29:39 10° SSW visible
06 Feb ? 21:59:05 10° N 22:02:24 17° NW 22:05:47 10° W visible
07 Feb ? 04:25:47 10° E 04:29:07 19° NE 04:32:35 10° N visible
07 Feb ? 06:02:38 10° SSE 06:07:22 82° ENE 06:12:21 10° NNW visible
07 Feb ? 18:04:18 10° NE 18:07:31 16° E 18:10:47 10° ESE visible
07 Feb ? 19:42:00 10° NNE 19:47:17 74° ESE 19:52:45 10° SSW visible
07 Feb ? 21:21:28 10° N 21:25:49 27° NW 21:30:18 10° WSW visible
